Hourly Data Report for September 29, 2004

SHERBROOKE A
QUEBEC

45°26'00.000" N
71°41'00.000" W
241.40 m
7028124
71610
YSC

Download Data

Hourly Data (September 2004)
Hourly Data Report for September 29, 2004
TIME
LST
Temp Definition
°C
Dew Point Definition
°C
Rel Hum Definition
%
Precip. Amount Definition
mm

Wind Dir Definition
10's deg

Wind Spd Definition
km/h
Visibility Definition
km
Stn Press Definition
kPa
Hmdx Definition


Wind Chill Definition


Weather Definition


00:00 6.9 5.6 91   5 7 15.0 98.84      
01:00 6.4 5.1 91   8 6 15.0 98.84      
02:00 5.7 4.7 93   7 9 15.0 98.80      
03:00 5.4 4.5 94   8 7 15.0 98.78      
04:00 5.1 4.3 95   9 9 15.0 98.83      
05:00 5.1 4.2 94   5 9 15.0 98.87      
06:00 4.7 4.0 95   6 13 8.0 98.90      
07:00 5.6 5.0 96   5 11 1.0 98.92     Fog
08:00 6.8 6.1 95   5 7 14.5 98.92     Mostly Cloudy
09:00 9.9 7.6 86   5 9 19.3 98.91     Mostly Cloudy
10:00 12.1 7.5 73   3 9 24.1 98.87     Mostly Cloudy
11:00 14.1 6.4 60   4 11 24.1 98.85     Mostly Cloudy
12:00 14.8 4.3 49   3 15 24.1 98.81     Mainly Clear
13:00 16.3 3.9 44   4 9 24.1 98.76     Mainly Clear
14:00 16.5 4.8 46   5 13 24.1 98.72     Mainly Clear
15:00 16.6 4.2 44   36 6 24.1 98.68     Mainly Clear
16:00 16.3 4.7 46   6 7 24.1 98.65     Mainly Clear
17:00 14.2 4.2 51   5 6 15.0 98.66      
18:00 7.8 4.4 79   2 6 15.0 98.68      
19:00 6.6 3.9 83   31 4 15.0 98.70      
20:00 5.7 3.8 88     0 15.0 98.71      
21:00 5.8 4.6 92   8 6 15.0 98.72      
22:00 5.4 4.1 91   9 4 15.0 98.74      
23:00 4.1 3.1 93   10 4 15.0 98.77      

Notes on Data Quality.

Legend

  • E = Estimated
  • M = Missing
  • NA = Not Available*
  • [empty] = Indicates an unobserved value
Date modified: